Year,Month,Day,Hour,Minute,Value (Times are PST for temperature in C)
2018,07,12,00,00,21.40
2018,07,12,00,01,21.40
2018,07,12,00,02,21.40
2018,07,12,00,03,21.40
2018,07,12,00,04,21.30
2018,07,12,00,05,21.30
2018,07,12,00,06,21.30
2018,07,12,00,07,21.30
2018,07,12,00,08,21.30
2018,07,12,00,09,21.20
2018,07,12,00,10,21.20
2018,07,12,00,11,21.20
2018,07,12,00,12,21.20
2018,07,12,00,13,21.20
2018,07,12,00,14,21.20
2018,07,12,00,15,21.20
2018,07,12,00,16,21.10
2018,07,12,00,17,21.10
2018,07,12,00,18,21.10
2018,07,12,00,19,21.10
2018,07,12,00,20,21.10
2018,07,12,00,21,21.00
2018,07,12,00,22,21.00
2018,07,12,00,23,21.00
2018,07,12,00,24,20.90
2018,07,12,00,25,20.90
2018,07,12,00,26,20.90
2018,07,12,00,27,20.90
2018,07,12,00,28,20.80
2018,07,12,00,29,20.80
2018,07,12,00,30,20.80
2018,07,12,00,31,20.80
2018,07,12,00,32,20.80
2018,07,12,00,33,20.70
2018,07,12,00,34,20.70
2018,07,12,00,35,20.70
2018,07,12,00,36,20.70
2018,07,12,00,37,20.60
2018,07,12,00,38,20.60
2018,07,12,00,39,20.60
2018,07,12,00,40,20.60
2018,07,12,00,41,20.60
2018,07,12,00,42,20.50
2018,07,12,00,43,20.50
2018,07,12,00,44,20.50
2018,07,12,00,45,20.50
2018,07,12,00,46,20.50
2018,07,12,00,47,20.50
2018,07,12,00,48,20.50
2018,07,12,00,49,20.50
2018,07,12,00,50,20.50
2018,07,12,00,51,20.50
2018,07,12,00,52,20.50
2018,07,12,00,53,20.50
2018,07,12,00,54,20.50
2018,07,12,00,55,20.50
2018,07,12,00,56,20.50
2018,07,12,00,57,20.60
2018,07,12,00,58,20.60
2018,07,12,00,59,20.60
2018,07,12,01,00,20.60
2018,07,12,01,01,20.60
2018,07,12,01,02,20.60
2018,07,12,01,03,20.60
2018,07,12,01,04,20.60
2018,07,12,01,05,20.60
2018,07,12,01,06,20.60
2018,07,12,01,07,20.60
2018,07,12,01,08,20.60
2018,07,12,01,09,20.60
2018,07,12,01,10,20.60
2018,07,12,01,11,20.60
2018,07,12,01,12,20.60
2018,07,12,01,13,20.60
2018,07,12,01,14,20.70
2018,07,12,01,15,20.70
2018,07,12,01,16,20.80
2018,07,12,01,17,20.80
2018,07,12,01,18,20.80
2018,07,12,01,19,20.80
2018,07,12,01,20,20.80
2018,07,12,01,21,20.80
2018,07,12,01,22,20.80
2018,07,12,01,23,20.80
2018,07,12,01,24,20.80
2018,07,12,01,25,20.80
2018,07,12,01,26,20.80
2018,07,12,01,27,20.80
2018,07,12,01,28,20.80
2018,07,12,01,29,20.90
2018,07,12,01,30,20.90
2018,07,12,01,31,20.90
2018,07,12,01,32,20.90
2018,07,12,01,33,20.90
2018,07,12,01,34,20.90
2018,07,12,01,35,20.90
2018,07,12,01,36,20.90
2018,07,12,01,37,20.90
2018,07,12,01,38,20.80
2018,07,12,01,39,20.80
2018,07,12,01,40,20.80
2018,07,12,01,41,20.80
2018,07,12,01,42,20.80
2018,07,12,01,43,20.80
2018,07,12,01,44,20.70
2018,07,12,01,45,20.70
2018,07,12,01,46,20.70
2018,07,12,01,47,20.70
2018,07,12,01,48,20.70
2018,07,12,01,49,20.70
2018,07,12,01,50,20.70
2018,07,12,01,51,20.70
2018,07,12,01,52,20.70
2018,07,12,01,53,20.70
2018,07,12,01,54,20.70
2018,07,12,01,55,20.70
2018,07,12,01,56,20.70
2018,07,12,01,57,20.70
2018,07,12,01,58,20.70
2018,07,12,01,59,20.70
2018,07,12,02,00,20.70
2018,07,12,02,01,20.70
2018,07,12,02,02,20.70
2018,07,12,02,03,20.70
2018,07,12,02,04,20.70
2018,07,12,02,05,20.70
2018,07,12,02,06,20.70
2018,07,12,02,07,20.60
2018,07,12,02,08,20.60
2018,07,12,02,09,20.60
2018,07,12,02,10,20.60
2018,07,12,02,11,20.50
2018,07,12,02,12,20.50
2018,07,12,02,13,20.50
2018,07,12,02,14,20.50
2018,07,12,02,15,20.40
2018,07,12,02,16,20.40
2018,07,12,02,17,20.40
2018,07,12,02,18,20.40
2018,07,12,02,19,20.30
2018,07,12,02,20,20.30
2018,07,12,02,21,20.30
2018,07,12,02,22,20.30
2018,07,12,02,23,20.20
2018,07,12,02,24,20.20
2018,07,12,02,25,20.20
2018,07,12,02,26,20.20
2018,07,12,02,27,20.10
2018,07,12,02,28,20.10
2018,07,12,02,29,20.10
2018,07,12,02,30,20.10
2018,07,12,02,31,20.00
2018,07,12,02,32,20.00
2018,07,12,02,33,19.90
2018,07,12,02,34,19.90
2018,07,12,02,35,19.90
2018,07,12,02,36,19.90
2018,07,12,02,37,19.90
2018,07,12,02,38,19.80
2018,07,12,02,39,19.80
2018,07,12,02,40,19.80
2018,07,12,02,41,19.80
2018,07,12,02,42,19.80
2018,07,12,02,43,19.80
2018,07,12,02,44,19.80
2018,07,12,02,45,19.80
2018,07,12,02,46,19.80
2018,07,12,02,47,19.80
2018,07,12,02,48,19.70
2018,07,12,02,49,19.70
2018,07,12,02,50,19.70
2018,07,12,02,51,19.70
2018,07,12,02,52,19.70
2018,07,12,02,53,19.70
2018,07,12,02,54,19.70
2018,07,12,02,55,19.70
2018,07,12,02,56,19.70
2018,07,12,02,57,19.70
2018,07,12,02,58,19.70
2018,07,12,02,59,19.70
2018,07,12,03,00,19.70
2018,07,12,03,01,19.70
2018,07,12,03,02,19.70
2018,07,12,03,03,19.70
2018,07,12,03,04,19.70
2018,07,12,03,05,19.70
2018,07,12,03,06,19.70
2018,07,12,03,07,19.70
2018,07,12,03,08,19.70
2018,07,12,03,09,19.70
2018,07,12,03,10,19.70
2018,07,12,03,11,19.70
2018,07,12,03,12,19.70
2018,07,12,03,13,19.70
2018,07,12,03,14,19.70
2018,07,12,03,15,19.70
2018,07,12,03,16,19.60
2018,07,12,03,17,19.60
2018,07,12,03,18,19.60
2018,07,12,03,19,19.60
2018,07,12,03,20,19.60
2018,07,12,03,21,19.60
2018,07,12,03,22,19.60
2018,07,12,03,23,19.60
2018,07,12,03,24,19.60
2018,07,12,03,25,19.60
2018,07,12,03,26,19.60
2018,07,12,03,27,19.50
2018,07,12,03,28,19.60
2018,07,12,03,29,19.60
2018,07,12,03,30,19.60
2018,07,12,03,31,19.60
2018,07,12,03,32,19.60
2018,07,12,03,33,19.60
2018,07,12,03,34,19.50
2018,07,12,03,35,19.50
2018,07,12,03,36,19.50
2018,07,12,03,37,19.50
2018,07,12,03,38,19.50
2018,07,12,03,39,19.50
2018,07,12,03,40,19.50
2018,07,12,03,41,19.60
2018,07,12,03,42,19.60
2018,07,12,03,43,19.60
2018,07,12,03,44,19.60
2018,07,12,03,45,19.60
2018,07,12,03,46,19.60
2018,07,12,03,47,19.60
2018,07,12,03,48,19.60
2018,07,12,03,49,19.60
2018,07,12,03,50,19.50
2018,07,12,03,51,19.50
2018,07,12,03,52,19.40
2018,07,12,03,53,19.40
2018,07,12,03,54,19.40
2018,07,12,03,55,19.40
2018,07,12,03,56,19.40
2018,07,12,03,57,19.30
2018,07,12,03,58,19.30
2018,07,12,03,59,19.30
2018,07,12,04,00,19.30
2018,07,12,04,01,19.30
2018,07,12,04,02,19.30
2018,07,12,04,03,19.30
2018,07,12,04,04,19.30
2018,07,12,04,05,19.30
2018,07,12,04,06,19.30
2018,07,12,04,07,19.20
2018,07,12,04,08,19.20
2018,07,12,04,09,19.20
2018,07,12,04,10,19.20
2018,07,12,04,11,19.20
2018,07,12,04,12,19.20
2018,07,12,04,13,19.20
2018,07,12,04,14,19.10
2018,07,12,04,15,19.10
2018,07,12,04,16,19.10
2018,07,12,04,17,19.10
2018,07,12,04,18,19.10
2018,07,12,04,19,19.10
2018,07,12,04,20,19.00
2018,07,12,04,21,19.00
2018,07,12,04,22,19.00
2018,07,12,04,23,19.00
2018,07,12,04,24,18.90
2018,07,12,04,25,18.90
2018,07,12,04,26,18.90
2018,07,12,04,27,18.90
2018,07,12,04,28,18.90
2018,07,12,04,29,18.90
2018,07,12,04,30,18.90
2018,07,12,04,31,18.80
2018,07,12,04,32,18.80
2018,07,12,04,33,18.80
2018,07,12,04,34,18.90
2018,07,12,04,35,18.90
2018,07,12,04,36,18.90
2018,07,12,04,37,18.80
2018,07,12,04,38,18.80
2018,07,12,04,39,18.80
2018,07,12,04,40,18.80
2018,07,12,04,41,18.80
2018,07,12,04,42,18.80
2018,07,12,04,43,18.80
2018,07,12,04,44,18.80
2018,07,12,04,45,18.80
2018,07,12,04,46,18.80
2018,07,12,04,47,18.80
2018,07,12,04,48,18.80
2018,07,12,04,49,18.80
2018,07,12,04,50,18.80
2018,07,12,04,51,18.70
2018,07,12,04,52,18.70
2018,07,12,04,53,18.70
2018,07,12,04,54,18.70
2018,07,12,04,55,18.70
2018,07,12,04,56,18.70
2018,07,12,04,57,18.60
2018,07,12,04,58,18.60
2018,07,12,04,59,18.60
2018,07,12,05,00,18.60
2018,07,12,05,01,18.60
2018,07,12,05,02,18.60
2018,07,12,05,03,18.50
2018,07,12,05,04,18.50
2018,07,12,05,05,18.40
2018,07,12,05,06,18.40
2018,07,12,05,07,18.40
2018,07,12,05,08,18.40
2018,07,12,05,09,18.40
2018,07,12,05,10,18.30
2018,07,12,05,11,18.30
2018,07,12,05,12,18.30
2018,07,12,05,13,18.30
2018,07,12,05,14,18.30
2018,07,12,05,15,18.20
2018,07,12,05,16,18.20
2018,07,12,05,17,18.20
2018,07,12,05,18,18.20
2018,07,12,05,19,18.10
2018,07,12,05,20,18.10
2018,07,12,05,21,18.10
2018,07,12,05,22,18.00
2018,07,12,05,23,18.00
2018,07,12,05,24,17.90
2018,07,12,05,25,17.90
2018,07,12,05,26,17.90
2018,07,12,05,27,17.80
2018,07,12,05,28,17.80
2018,07,12,05,29,17.80
2018,07,12,05,30,17.80
2018,07,12,05,31,17.80
2018,07,12,05,32,17.80
2018,07,12,05,33,17.80
2018,07,12,05,34,17.80
2018,07,12,05,35,17.70
2018,07,12,05,36,17.70
2018,07,12,05,37,17.70
2018,07,12,05,38,17.70
2018,07,12,05,39,17.70
2018,07,12,05,40,17.70
2018,07,12,05,41,17.70
2018,07,12,05,42,17.70
2018,07,12,05,43,17.70
2018,07,12,05,44,17.70
2018,07,12,05,45,17.70
2018,07,12,05,46,17.70
2018,07,12,05,47,17.70
2018,07,12,05,48,17.70
2018,07,12,05,49,17.70
2018,07,12,05,50,17.70
2018,07,12,05,51,17.70
2018,07,12,05,52,17.70
2018,07,12,05,53,17.80
2018,07,12,05,54,17.80
2018,07,12,05,55,17.80
2018,07,12,05,56,17.80
2018,07,12,05,57,17.80
2018,07,12,05,58,17.80
2018,07,12,05,59,17.80
2018,07,12,06,00,17.80
2018,07,12,06,01,17.80
2018,07,12,06,02,17.90
2018,07,12,06,03,17.90
2018,07,12,06,04,17.90
2018,07,12,06,05,17.90
2018,07,12,06,06,17.90
2018,07,12,06,07,17.80
2018,07,12,06,08,17.80
2018,07,12,06,09,17.80
2018,07,12,06,10,17.80
2018,07,12,06,11,17.80
2018,07,12,06,12,17.80
2018,07,12,06,13,17.80
2018,07,12,06,14,17.80
2018,07,12,06,15,17.80
2018,07,12,06,16,17.80
2018,07,12,06,17,17.80
2018,07,12,06,18,17.80
2018,07,12,06,19,17.90
2018,07,12,06,20,17.90
2018,07,12,06,21,17.90
2018,07,12,06,22,17.90
2018,07,12,06,23,17.90
2018,07,12,06,24,18.00
2018,07,12,06,25,18.00
2018,07,12,06,26,18.10
2018,07,12,06,27,18.10
2018,07,12,06,28,18.10
2018,07,12,06,29,18.10
2018,07,12,06,30,18.10
2018,07,12,06,31,18.10
2018,07,12,06,32,18.10
2018,07,12,06,33,18.20
2018,07,12,06,34,18.20
2018,07,12,06,35,18.20
2018,07,12,06,36,18.20
2018,07,12,06,37,18.30
2018,07,12,06,38,18.30
2018,07,12,06,39,18.30
2018,07,12,06,40,18.30
2018,07,12,06,41,18.40
2018,07,12,06,42,18.40
2018,07,12,06,43,18.40
2018,07,12,06,44,18.50
2018,07,12,06,45,18.60
2018,07,12,06,46,18.60
2018,07,12,06,47,18.60
2018,07,12,06,48,18.70
2018,07,12,06,49,18.70
2018,07,12,06,50,18.80
2018,07,12,06,51,18.80
2018,07,12,06,52,18.80
2018,07,12,06,53,18.90
2018,07,12,06,54,18.90
2018,07,12,06,55,18.90
2018,07,12,06,56,19.00
2018,07,12,06,57,19.00
2018,07,12,06,58,19.00
2018,07,12,06,59,19.00
2018,07,12,07,00,19.00
2018,07,12,07,01,19.00
2018,07,12,07,02,19.10
2018,07,12,07,03,19.10
2018,07,12,07,04,19.10
2018,07,12,07,05,19.10
2018,07,12,07,06,19.10
2018,07,12,07,07,19.10
2018,07,12,07,08,19.00
2018,07,12,07,09,19.10
2018,07,12,07,10,19.00
2018,07,12,07,11,19.00
2018,07,12,07,12,19.00
2018,07,12,07,13,19.00
2018,07,12,07,14,19.00
2018,07,12,07,15,18.90
2018,07,12,07,16,18.90
2018,07,12,07,17,18.90
2018,07,12,07,18,18.90
2018,07,12,07,19,18.90
2018,07,12,07,20,18.90
2018,07,12,07,21,18.90
2018,07,12,07,22,18.90
2018,07,12,07,23,18.90
2018,07,12,07,24,18.90
2018,07,12,07,25,18.90
2018,07,12,07,26,18.90
2018,07,12,07,27,18.90
2018,07,12,07,28,18.90
2018,07,12,07,29,18.90
2018,07,12,07,30,18.90
2018,07,12,07,31,18.90
2018,07,12,07,32,19.00
2018,07,12,07,33,19.00
2018,07,12,07,34,19.00
2018,07,12,07,35,19.00
2018,07,12,07,36,19.10
2018,07,12,07,37,19.10
2018,07,12,07,38,19.10
2018,07,12,07,39,19.10
2018,07,12,07,40,19.10
2018,07,12,07,41,19.10
2018,07,12,07,42,19.20
2018,07,12,07,43,19.20
2018,07,12,07,44,19.20
2018,07,12,07,45,19.20
2018,07,12,07,46,19.20
2018,07,12,07,47,19.30
2018,07,12,07,48,19.30
2018,07,12,07,49,19.30
2018,07,12,07,50,19.30
2018,07,12,07,51,19.40
2018,07,12,07,52,19.40
2018,07,12,07,53,19.40
2018,07,12,07,54,19.40
2018,07,12,07,55,19.40
2018,07,12,07,56,19.40
2018,07,12,07,57,19.40
2018,07,12,07,58,19.40
2018,07,12,07,59,19.50
2018,07,12,08,00,19.50
2018,07,12,08,01,19.50
2018,07,12,08,02,19.60
2018,07,12,08,03,19.60
2018,07,12,08,04,19.60
2018,07,12,08,05,19.70
2018,07,12,08,06,19.70
2018,07,12,08,07,19.80
2018,07,12,08,08,19.80
2018,07,12,08,09,19.80
2018,07,12,08,10,19.90
2018,07,12,08,11,19.90
2018,07,12,08,12,19.90
2018,07,12,08,13,19.90
2018,07,12,08,14,19.90
2018,07,12,08,15,19.90
2018,07,12,08,16,19.90
2018,07,12,08,17,20.00
2018,07,12,08,18,20.00
2018,07,12,08,19,20.00
2018,07,12,08,20,20.10
2018,07,12,08,21,20.10
2018,07,12,08,22,20.20
2018,07,12,08,23,20.20
2018,07,12,08,24,20.20
2018,07,12,08,25,20.30
2018,07,12,08,26,20.30
2018,07,12,08,27,20.30
2018,07,12,08,28,20.30
2018,07,12,08,29,20.30
2018,07,12,08,30,20.30
2018,07,12,08,31,20.40
2018,07,12,08,32,20.40
2018,07,12,08,33,20.40
2018,07,12,08,34,20.40
2018,07,12,08,35,20.40
2018,07,12,08,36,20.50
2018,07,12,08,37,20.50
2018,07,12,08,38,20.50
2018,07,12,08,39,20.50
2018,07,12,08,40,20.50
2018,07,12,08,41,20.60
2018,07,12,08,42,20.60
2018,07,12,08,43,20.70
2018,07,12,08,44,20.70
2018,07,12,08,45,20.70
2018,07,12,08,46,20.70
2018,07,12,08,47,20.70
2018,07,12,08,48,20.80
2018,07,12,08,49,20.70
2018,07,12,08,50,20.70
2018,07,12,08,51,20.70
2018,07,12,08,52,20.70
2018,07,12,08,53,20.80
2018,07,12,08,54,20.80
2018,07,12,08,55,20.90
2018,07,12,08,56,20.90
2018,07,12,08,57,20.90
2018,07,12,08,58,21.00
2018,07,12,08,59,21.00
2018,07,12,09,00,21.10
2018,07,12,09,01,21.10
2018,07,12,09,02,21.10
2018,07,12,09,03,21.10
2018,07,12,09,04,21.20
2018,07,12,09,05,21.20
2018,07,12,09,06,21.20
2018,07,12,09,07,21.20
2018,07,12,09,08,21.20
2018,07,12,09,09,21.30
2018,07,12,09,10,21.30
2018,07,12,09,11,21.40
2018,07,12,09,12,21.50
2018,07,12,09,13,21.60
2018,07,12,09,14,21.60
2018,07,12,09,15,21.70
2018,07,12,09,16,21.70
2018,07,12,09,17,21.80
2018,07,12,09,18,21.90
2018,07,12,09,19,22.00
2018,07,12,09,20,22.00
2018,07,12,09,21,22.10
2018,07,12,09,22,22.10
2018,07,12,09,23,22.10
2018,07,12,09,24,22.20
2018,07,12,09,25,22.20
2018,07,12,09,26,22.20
2018,07,12,09,27,22.20
2018,07,12,09,28,22.10
2018,07,12,09,29,22.10
2018,07,12,09,30,22.10
2018,07,12,09,31,22.20
2018,07,12,09,32,22.20
2018,07,12,09,33,22.20
2018,07,12,09,34,22.20
2018,07,12,09,35,22.20
2018,07,12,09,36,22.20
2018,07,12,09,37,22.20
2018,07,12,09,38,22.30
2018,07,12,09,39,22.30
2018,07,12,09,40,22.20
2018,07,12,09,41,22.20
2018,07,12,09,42,22.20
2018,07,12,09,43,22.20
2018,07,12,09,44,22.20
2018,07,12,09,45,22.10
2018,07,12,09,46,22.10
2018,07,12,09,47,22.10
2018,07,12,09,48,22.00
2018,07,12,09,49,22.00
2018,07,12,09,50,21.90
2018,07,12,09,51,21.90
2018,07,12,09,52,22.00
2018,07,12,09,53,22.10
2018,07,12,09,54,22.10
2018,07,12,09,55,22.10
2018,07,12,09,56,22.10
2018,07,12,09,57,22.20
2018,07,12,09,58,22.20
2018,07,12,09,59,22.30
2018,07,12,10,00,22.30
2018,07,12,10,01,22.40
2018,07,12,10,02,22.40
2018,07,12,10,03,22.40
2018,07,12,10,04,22.40
2018,07,12,10,05,22.40
2018,07,12,10,06,22.50
2018,07,12,10,07,22.60
2018,07,12,10,08,22.60
2018,07,12,10,09,22.60
2018,07,12,10,10,22.50
2018,07,12,10,11,22.40
2018,07,12,10,12,22.30
2018,07,12,10,13,22.30
2018,07,12,10,14,22.30
2018,07,12,10,15,22.30
2018,07,12,10,16,22.40
2018,07,12,10,17,22.50
2018,07,12,10,18,22.50
2018,07,12,10,19,22.50
2018,07,12,10,20,22.40
2018,07,12,10,21,22.30
2018,07,12,10,22,22.20
2018,07,12,10,23,22.20
2018,07,12,10,24,22.20
2018,07,12,10,25,22.20
2018,07,12,10,26,22.10
2018,07,12,10,27,22.10
2018,07,12,10,28,22.10
2018,07,12,10,29,22.10
2018,07,12,10,30,22.10
2018,07,12,10,31,22.00
2018,07,12,10,32,21.90
2018,07,12,10,33,21.80
2018,07,12,10,34,21.80
2018,07,12,10,35,21.90
2018,07,12,10,36,21.90
2018,07,12,10,37,21.90
2018,07,12,10,38,21.90
2018,07,12,10,39,21.90
2018,07,12,10,40,21.90
2018,07,12,10,41,21.90
2018,07,12,10,42,21.90
2018,07,12,10,43,21.90
2018,07,12,10,44,21.90
2018,07,12,10,45,22.00
2018,07,12,10,46,22.10
2018,07,12,10,47,22.20
2018,07,12,10,48,22.40
2018,07,12,10,49,22.50
2018,07,12,10,50,22.70
2018,07,12,10,51,22.70
2018,07,12,10,52,22.70
2018,07,12,10,53,22.70
2018,07,12,10,54,22.80
2018,07,12,10,55,22.80
2018,07,12,10,56,22.80
2018,07,12,10,57,22.80
2018,07,12,10,58,22.80
2018,07,12,10,59,22.80
2018,07,12,11,00,22.70
2018,07,12,11,01,22.60
2018,07,12,11,02,22.50
2018,07,12,11,03,22.40
2018,07,12,11,04,22.30
2018,07,12,11,05,22.20
2018,07,12,11,06,22.30
2018,07,12,11,07,22.30
2018,07,12,11,08,22.40
2018,07,12,11,09,22.50
2018,07,12,11,10,22.50
2018,07,12,11,11,22.50
2018,07,12,11,12,22.50
2018,07,12,11,13,22.40
2018,07,12,11,14,22.40
2018,07,12,11,15,22.30
2018,07,12,11,16,22.40
2018,07,12,11,17,22.50
2018,07,12,11,18,22.60
2018,07,12,11,19,22.70
2018,07,12,11,20,22.80
2018,07,12,11,21,22.90
2018,07,12,11,22,22.90
2018,07,12,11,23,22.90
2018,07,12,11,24,22.80
2018,07,12,11,25,22.90
2018,07,12,11,26,22.90
2018,07,12,11,27,22.90
2018,07,12,11,28,22.90
2018,07,12,11,29,22.90
2018,07,12,11,30,22.90
2018,07,12,11,31,22.90
2018,07,12,11,32,22.90
2018,07,12,11,33,22.80
2018,07,12,11,34,22.80
2018,07,12,11,35,22.90
2018,07,12,11,36,23.00
2018,07,12,11,37,23.00
2018,07,12,11,38,22.90
2018,07,12,11,39,22.80
2018,07,12,11,40,22.80
2018,07,12,11,41,22.80
2018,07,12,11,42,22.80
2018,07,12,11,43,22.80
2018,07,12,11,44,22.90
2018,07,12,11,45,23.10
2018,07,12,11,46,23.20
2018,07,12,11,47,23.40
2018,07,12,11,48,23.60
2018,07,12,11,49,23.80
2018,07,12,11,50,23.90
2018,07,12,11,51,23.90
2018,07,12,11,52,23.90
2018,07,12,11,53,23.80
2018,07,12,11,54,23.90
2018,07,12,11,55,24.00
2018,07,12,11,56,24.10
2018,07,12,11,57,24.10
2018,07,12,11,58,24.10
2018,07,12,11,59,24.10
2018,07,12,12,00,24.10
2018,07,12,12,01,24.10
2018,07,12,12,02,24.10
2018,07,12,12,03,24.20
2018,07,12,12,04,24.30
2018,07,12,12,05,24.30
2018,07,12,12,06,24.30
2018,07,12,12,07,24.20
2018,07,12,12,08,24.20
2018,07,12,12,09,24.20
2018,07,12,12,10,24.10
2018,07,12,12,11,24.20
2018,07,12,12,12,24.20
2018,07,12,12,13,24.30
2018,07,12,12,14,24.40
2018,07,12,12,15,24.50
2018,07,12,12,16,24.60
2018,07,12,12,17,24.70
2018,07,12,12,18,24.70
2018,07,12,12,19,24.70
2018,07,12,12,20,24.80
2018,07,12,12,21,24.90
2018,07,12,12,22,25.00
2018,07,12,12,23,25.00
2018,07,12,12,24,25.00
2018,07,12,12,25,25.00
2018,07,12,12,26,25.10
2018,07,12,12,27,25.10
2018,07,12,12,28,25.20
2018,07,12,12,29,25.30
2018,07,12,12,30,25.30
2018,07,12,12,31,25.20
2018,07,12,12,32,25.20
2018,07,12,12,33,25.20
2018,07,12,12,34,25.20
2018,07,12,12,35,25.20
2018,07,12,12,36,25.10
2018,07,12,12,37,25.10
2018,07,12,12,38,25.20
2018,07,12,12,39,25.30
2018,07,12,12,40,25.40
2018,07,12,12,41,25.50
2018,07,12,12,42,25.50
2018,07,12,12,43,25.50
2018,07,12,12,44,25.50
2018,07,12,12,45,25.50
2018,07,12,12,46,25.50
2018,07,12,12,47,25.50
2018,07,12,12,48,25.40
2018,07,12,12,49,25.40
2018,07,12,12,50,25.30
2018,07,12,12,51,25.30
2018,07,12,12,52,25.30
2018,07,12,12,53,25.30
2018,07,12,12,54,25.40
2018,07,12,12,55,25.40
2018,07,12,12,56,25.40
2018,07,12,12,57,25.50
2018,07,12,12,58,25.40
2018,07,12,12,59,25.40
2018,07,12,13,00,25.40
2018,07,12,13,01,25.40
2018,07,12,13,02,25.30
2018,07,12,13,03,25.30
2018,07,12,13,04,25.20
2018,07,12,13,05,25.10
2018,07,12,13,06,25.00
2018,07,12,13,07,25.00
2018,07,12,13,08,25.00
2018,07,12,13,09,25.00
2018,07,12,13,10,24.90
2018,07,12,13,11,24.90
2018,07,12,13,12,25.00
2018,07,12,13,13,25.00
2018,07,12,13,14,25.00
2018,07,12,13,15,25.10
2018,07,12,13,16,25.10
2018,07,12,13,17,25.20
2018,07,12,13,18,25.30
2018,07,12,13,19,25.30
2018,07,12,13,20,25.20
2018,07,12,13,21,25.30
2018,07,12,13,22,25.30
2018,07,12,13,23,25.20
2018,07,12,13,24,25.20
2018,07,12,13,25,25.20
2018,07,12,13,26,25.20
2018,07,12,13,27,25.20
2018,07,12,13,28,25.20
2018,07,12,13,29,25.20
2018,07,12,13,30,25.30
2018,07,12,13,31,25.30
2018,07,12,13,32,25.30
2018,07,12,13,33,25.30
2018,07,12,13,34,25.30
2018,07,12,13,35,25.40
2018,07,12,13,36,25.40
2018,07,12,13,37,25.30
2018,07,12,13,38,25.30
2018,07,12,13,39,25.30
2018,07,12,13,40,25.30
2018,07,12,13,41,25.30
2018,07,12,13,42,25.30
2018,07,12,13,43,25.40
2018,07,12,13,44,25.30
2018,07,12,13,45,25.30
2018,07,12,13,46,25.40
2018,07,12,13,47,25.50
2018,07,12,13,48,25.60
2018,07,12,13,49,25.70
2018,07,12,13,50,25.80
2018,07,12,13,51,25.80
2018,07,12,13,52,25.90
2018,07,12,13,53,25.90
2018,07,12,13,54,26.00
2018,07,12,13,55,26.10
2018,07,12,13,56,26.10
2018,07,12,13,57,26.10
2018,07,12,13,58,26.10
2018,07,12,13,59,26.20
2018,07,12,14,00,26.20
2018,07,12,14,01,26.20
2018,07,12,14,02,26.30
2018,07,12,14,03,26.20
2018,07,12,14,04,26.20
2018,07,12,14,05,26.10
2018,07,12,14,06,26.10
2018,07,12,14,07,26.00
2018,07,12,14,08,26.00
2018,07,12,14,09,25.90
2018,07,12,14,10,25.90
2018,07,12,14,11,25.90
2018,07,12,14,12,26.00
2018,07,12,14,13,26.10
2018,07,12,14,14,26.20
2018,07,12,14,15,26.20
2018,07,12,14,16,26.20
2018,07,12,14,17,26.30
2018,07,12,14,18,26.30
2018,07,12,14,19,26.30
2018,07,12,14,20,26.30
2018,07,12,14,21,26.30
2018,07,12,14,22,26.30
2018,07,12,14,23,26.40
2018,07,12,14,24,26.50
2018,07,12,14,25,26.50
2018,07,12,14,26,26.50
2018,07,12,14,27,26.60
2018,07,12,14,28,26.70
2018,07,12,14,29,26.70
2018,07,12,14,30,26.80
2018,07,12,14,31,26.90
2018,07,12,14,32,27.00
2018,07,12,14,33,27.10
2018,07,12,14,34,27.10
2018,07,12,14,35,27.10
2018,07,12,14,36,27.10
2018,07,12,14,37,27.20
2018,07,12,14,38,27.30
2018,07,12,14,39,27.40
2018,07,12,14,40,27.30
2018,07,12,14,41,27.30
2018,07,12,14,42,27.30
2018,07,12,14,43,27.30
2018,07,12,14,44,27.30
2018,07,12,14,45,27.20
2018,07,12,14,46,27.20
2018,07,12,14,47,27.20
2018,07,12,14,48,27.20
2018,07,12,14,49,27.20
2018,07,12,14,50,27.20
2018,07,12,14,51,27.20
2018,07,12,14,52,27.20
2018,07,12,14,53,27.20
2018,07,12,14,54,27.10
2018,07,12,14,55,27.10
2018,07,12,14,56,27.10
2018,07,12,14,57,27.20
2018,07,12,14,58,27.20
2018,07,12,14,59,27.30
2018,07,12,15,00,27.30
2018,07,12,15,01,27.30
2018,07,12,15,02,27.30
2018,07,12,15,03,27.20
2018,07,12,15,04,27.20
2018,07,12,15,05,27.20
2018,07,12,15,06,27.10
2018,07,12,15,07,27.10
2018,07,12,15,08,27.10
2018,07,12,15,09,27.00
2018,07,12,15,10,27.00
2018,07,12,15,11,27.00
2018,07,12,15,12,27.00
2018,07,12,15,13,27.00
2018,07,12,15,14,27.10
2018,07,12,15,15,27.10
2018,07,12,15,16,27.10
2018,07,12,15,17,27.10
2018,07,12,15,18,27.10
2018,07,12,15,19,27.20
2018,07,12,15,20,27.20
2018,07,12,15,21,27.20
2018,07,12,15,22,27.20
2018,07,12,15,23,27.30
2018,07,12,15,24,27.40
2018,07,12,15,25,27.50
2018,07,12,15,26,27.60
2018,07,12,15,27,27.70
2018,07,12,15,28,27.70
2018,07,12,15,29,27.70
2018,07,12,15,30,27.80
2018,07,12,15,31,27.80
2018,07,12,15,32,27.80
2018,07,12,15,33,27.80
2018,07,12,15,34,27.80
2018,07,12,15,35,27.90
2018,07,12,15,36,28.00
2018,07,12,15,37,28.00
2018,07,12,15,38,27.90
2018,07,12,15,39,27.90
2018,07,12,15,40,27.80
2018,07,12,15,41,27.90
2018,07,12,15,42,27.90
2018,07,12,15,43,28.00
2018,07,12,15,44,28.00
2018,07,12,15,45,28.00
2018,07,12,15,46,28.10
2018,07,12,15,47,28.10
2018,07,12,15,48,28.00
2018,07,12,15,49,28.00
2018,07,12,15,50,28.00
2018,07,12,15,51,28.10
2018,07,12,15,52,28.10
2018,07,12,15,53,28.20
2018,07,12,15,54,28.20
2018,07,12,15,55,28.20
2018,07,12,15,56,28.20
2018,07,12,15,57,28.10
2018,07,12,15,58,28.10
2018,07,12,15,59,28.10
2018,07,12,16,00,28.10
2018,07,12,16,01,28.10
2018,07,12,16,02,28.00
2018,07,12,16,03,27.90
2018,07,12,16,04,27.90
2018,07,12,16,05,27.90
2018,07,12,16,06,28.00
2018,07,12,16,07,28.00
2018,07,12,16,08,28.10
2018,07,12,16,09,28.20
2018,07,12,16,10,28.20
2018,07,12,16,11,28.30
2018,07,12,16,12,28.30
2018,07,12,16,13,28.30
2018,07,12,16,14,28.20
2018,07,12,16,15,28.30
2018,07,12,16,16,28.30
2018,07,12,16,17,28.30
2018,07,12,16,18,28.30
2018,07,12,16,19,28.30
2018,07,12,16,20,28.30
2018,07,12,16,21,28.30
2018,07,12,16,22,28.40
2018,07,12,16,23,28.50
2018,07,12,16,24,28.50
2018,07,12,16,25,28.60
2018,07,12,16,26,28.60
2018,07,12,16,27,28.70
2018,07,12,16,28,28.70
2018,07,12,16,29,28.70
2018,07,12,16,30,28.80
2018,07,12,16,31,28.80
2018,07,12,16,32,28.80
2018,07,12,16,33,28.80
2018,07,12,16,34,28.70
2018,07,12,16,35,28.70
2018,07,12,16,36,28.60
2018,07,12,16,37,28.40
2018,07,12,16,38,28.30
2018,07,12,16,39,28.30
2018,07,12,16,40,28.30
2018,07,12,16,41,28.30
2018,07,12,16,42,28.30
2018,07,12,16,43,28.20
2018,07,12,16,44,28.10
2018,07,12,16,45,28.00
2018,07,12,16,46,27.90
2018,07,12,16,47,27.90
2018,07,12,16,48,27.90
2018,07,12,16,49,28.00
2018,07,12,16,50,28.00
2018,07,12,16,51,28.00
2018,07,12,16,52,28.10
2018,07,12,16,53,28.10
2018,07,12,16,54,28.20
2018,07,12,16,55,28.20
2018,07,12,16,56,28.20
2018,07,12,16,57,28.20
2018,07,12,16,58,28.20
2018,07,12,16,59,28.20
2018,07,12,17,00,28.20
2018,07,12,17,01,28.10
2018,07,12,17,02,28.00
2018,07,12,17,03,28.00
2018,07,12,17,04,27.90
2018,07,12,17,05,28.00
2018,07,12,17,06,28.10
2018,07,12,17,07,28.10
2018,07,12,17,08,28.10
2018,07,12,17,09,28.00
2018,07,12,17,10,28.00
2018,07,12,17,11,28.10
2018,07,12,17,12,28.10
2018,07,12,17,13,28.10
2018,07,12,17,14,28.10
2018,07,12,17,15,28.10
2018,07,12,17,16,28.20
2018,07,12,17,17,28.20
2018,07,12,17,18,28.10
2018,07,12,17,19,28.10